Regional Weather Roundup
Issued by NWS

Home | Current Version | Previous Version | Text Only | Print | Product List | Glossary Off
Versions: 1 2 3 4 5 6 7 8 9 10 11 12 13 14 15 16 17 18 19 20 21 22 23 24 25 26 27 28 29 30 31 32 33 34 35 36 37 38 39 40 41 42 43 44 45 46 47 48 49 50

812
ASUS43 KLSX 261710
RWRMO

WEATHER SUMMARY FOR MISSOURI
NATIONAL WEATHER SERVICE SPRINGFIELD MO
1200 PM CDT MON SEP 26 2016

NOTE: "FAIR" INDICATES FEW OR NO CLOUDS BELOW 12,000 FEET WITH NO
       SIGNIFICANT WEATHER AND/OR OBSTRUCTIONS TO VISIBILITY.
       CURRENT SKY AND/OR WEATHER CONDITIONS ARE NOT AVAILABLE FOR
       CHILLICOTHE AND FARMINGTON.

MOZ001>031-035>038-043-044-053-054-261800-
...NORTHERN AND WESTERN MISSOURI...

CITY           SKY/WX    TMP DP  RH WIND       PRES   REMARKS
KANSAS CTY INT SUNNY     68  39  34 VRB5      30.26F
KANSAS C DTWN  SUNNY     70  40  33 W7        30.26F
LEE`S SUMMIT   SUNNY     68  40  35 NW10      30.27F
ST JOSEPH      SUNNY     70  36  28 NW8G20    30.25F
CHILLICOTHE      N/A     70  41  34 NW8G18    30.23F
KIRKSVILLE     SUNNY     68  40  35 NW12G21   30.20F

$$
MOZ066>068-077>081-088>096-101>105-261800-
...SOUTHWEST MISSOURI...

CITY           SKY/WX    TMP DP  RH WIND       PRES   REMARKS
SPRINGFIELD    SUNNY     69  42  37 N10G23    30.25F
JOPLIN         SUNNY     69  46  43 NE7       30.28F
BRANSON        MOSUNNY   68  48  49 N14       30.26S

$$
MOZ032>034-039>042-045>050-055>058-069>072-261800-
...CENTRAL MISSOURI...

CITY           SKY/WX    TMP DP  RH WIND       PRES   REMARKS
COLUMBIA       SUNNY     69  38  32 NW14      30.22F
JEFFERSON CITY SUNNY     69  36  29 NW10      30.21F
ROLLA          SUNNY     67  44  43 NW10      30.20F
SEDALIA        SUNNY     71  36  27 N16       30.25F
WHITEMAN AFB   MOSUNNY   70  38  30 N10       30.24S
OSAGE BEACH    SUNNY     67  43  41 NW7       30.24F

$$
MOZ051-052-059>065-261800-
...EAST CENTRAL MISSOURI...

CITY           SKY/WX    TMP DP  RH WIND       PRES   REMARKS
ST LOUIS INTL  MOSUNNY   71  39  31 NW14G21   30.17F
SPIRIT OF STL  MOSUNNY   70  43  37 NW8       30.17F
ST CHARLES     SUNNY     70  42  36 NW13      30.16F

$$
MOZ072>076-082>087-097>100-106>115-261800-
...SOUTH CENTRAL AND SOUTHEAST MISSOURI...

CITY           SKY/WX    TMP DP  RH WIND       PRES   REMARKS
CAPE GIRARDEAU CLOUDY    68  53  58 N8        30.16F
FARMINGTON     MOSUNNY   67  52  58 N6        30.19F
WEST PLAINS    MOSUNNY   70  47  43 NE10      30.23F

$$




USA.gov is the U.S. government's official web portal to all federal, state and local government web resources and services.